Evans Head Observation History
Time Wind Speed Temp Pressure Rel. Hum Rain
12/10:00pm SSW 6-9 kts 22.8°c 1011.8 hPa 91% 0.0mm
12/09:30pm S 8-9 kts 22.7°c 1011.7 hPa 91% 0.0mm
12/09:00pm S 8-11 kts 22.8°c 1011.6 hPa 91% 0.0mm
12/08:30pm S 10-14 kts 22.8°c 1011.6 hPa 91% 0.0mm
12/08:00pm S 8-10 kts 23.2°c 1010.9 hPa 90% 0.0mm
12/07:30pm SSE 9-12 kts 23.3°c 1011.0 hPa 89% 0.0mm
12/07:00pm SSE 5-8 kts 23.6°c 1010.8 hPa 86% 0.0mm
12/06:30pm SSE 10-13 kts 24.1°c 1010.4 hPa 85% 0.0mm
12/06:00pm SE 11-14 kts 24.1°c 1009.1 hPa 85% 0.0mm
12/05:30pm SSE 11-15 kts 25.0°c 1009.4 hPa 81% 0.0mm
12/05:00pm SE 13-17 kts 25.2°c 1009.2 hPa 79% 0.0mm
12/04:30pm SE 11-17 kts 25.6°c 1009.5 hPa 76% 0.0mm
12/04:00pm SE 11-17 kts 26.3°c 1009.6 hPa 75% 0.0mm
12/03:30pm S 14-19 kts 26.0°c 1010.0 hPa 75% 0.0mm
12/03:00pm SSE 16-22 kts 25.8°c 1010.0 hPa 75% 0.0mm
12/02:30pm SSE 16-22 kts 25.7°c 1010.1 hPa 74% 0.0mm
12/02:00pm SSE 17-23 kts 26.2°c 1010.4 hPa 74% 0.0mm
12/01:30pm SSE 15-21 kts 25.9°c 1010.5 hPa 73% 0.0mm
12/01:00pm SSE 15-20 kts 26.0°c 1010.6 hPa 73% 0.0mm
12/12:30pm SSE 14-19 kts 25.6°c 1010.8 hPa 76% 0.0mm
12/12:00pm SSE 16-22 kts 25.7°c 1011.2 hPa 76% 0.0mm
12/11:30am S 14-20 kts 25.3°c 1011.7 hPa 74% 0.0mm
12/11:00am S 15-22 kts 25.9°c 1011.7 hPa 76% 0.0mm
12/10:30am S 18-24 kts 24.3°c 1011.8 hPa 80% 0.0mm
12/10:00am S 16-22 kts 24.6°c 1011.8 hPa 81% 0.0mm
12/09:30am S 15-20 kts 24.2°c 1011.6 hPa 81% 0.0mm
12/09:00am S 15-20 kts 23.8°c 1011.4 hPa 82% 1.8mm
12/08:30am S 13-18 kts 23.9°c 1011.1 hPa 83% 1.8mm
12/08:00am S 13-17 kts 23.7°c 1010.9 hPa 83% 1.8mm
12/07:30am S 10-13 kts 23.5°c 1010.6 hPa 83% 1.8mm
12/07:00am SSE 9-11 kts 22.9°c 1010.2 hPa 87% 1.8mm
12/06:30am SSE 7-9 kts 21.4°c 1009.9 hPa 92% 1.8mm
12/06:00am S 6-8 kts 20.5°c 1009.4 hPa 93% 1.8mm
12/05:30am S 6-8 kts 20.3°c 1009.1 hPa 92% 1.8mm
12/05:00am S 5-7 kts 20.4°c 1009.0 hPa 88% 1.8mm
12/04:30am S 2-5 kts 21.5°c 1009.2 hPa 83% 1.8mm
12/04:00am NNE 4-5 kts 21.4°c 1009.1 hPa 84% 1.8mm
12/03:30am NNW 4-6 kts 21.6°c 1008.9 hPa 83% 1.8mm
12/03:00am NNE 5-7 kts 21.4°c 1009.3 hPa 86% 1.8mm
12/02:30am E 5-7 kts 21.9°c 1009.5 hPa 82% 1.8mm
12/02:00am S 6-8 kts 21.2°c 1009.4 hPa 85% 1.8mm
12/01:30am S 9-15 kts 21.5°c 1009.3 hPa 85% 1.8mm
12/01:00am SSE 10-13 kts 21.4°c 1009.7 hPa 79% 1.8mm
12/12:30am W 8-12 kts 21.6°c 1009.7 hPa 76% 1.8mm
12/12:00am NNW 10-16 kts 20.7°c 1009.9 hPa 84% 1.8mm
Time Wind Speed Temp Pressure Rel. Hum Rain
11/11:30pm NNW 12-19 kts 20.4°c 1011.0 hPa 90% 1.8mm
11/11:00pm NNW 16-27 kts 20.8°c 1012.2 hPa 91% 1.8mm
11/10:34pm NNW 15-27 kts 21.6°c 1012.9 hPa 92% 1.6mm
11/10:30pm NNW 12-24 kts 21.5°c 1013.1 hPa 90% 1.6mm
11/10:00pm NW 10-14 kts 22.7°c 1014.0 hPa 91% 0.8mm
11/09:30pm WNW 5-8 kts 22.9°c 1014.1 hPa 89% 0.2mm
11/09:00pm SW 6-8 kts 23.1°c 1014.3 hPa 86% 0.0mm
11/08:30pm S 8-11 kts 23.1°c 1013.3 hPa 86% 0.0mm
11/08:00pm SSW 14-20 kts 22.5°c 1013.5 hPa 89% 0.0mm
11/07:30pm S 13-17 kts 22.8°c 1013.1 hPa 89% 0.0mm
11/07:00pm SSE 13-19 kts 22.7°c 1012.0 hPa 89% 0.0mm
11/06:30pm SSE 11-15 kts 23.8°c 1012.0 hPa 89% 0.0mm
11/06:00pm SE 7-9 kts 24.4°c 1010.3 hPa 88% 0.0mm
11/05:30pm E 7-11 kts 24.8°c 1010.0 hPa 86% 0.0mm
11/05:00pm E 7-11 kts 24.9°c 1009.5 hPa 84% 0.0mm
11/04:30pm ESE 7-10 kts 26.1°c 1009.8 hPa 76% 0.0mm
11/04:00pm E 9-11 kts 25.9°c 1009.9 hPa 77% 0.0mm
11/03:30pm ESE 9-11 kts 25.7°c 1010.4 hPa 78% 0.0mm
11/03:00pm SE 11-14 kts 25.8°c 1011.0 hPa 81% 0.0mm
11/02:30pm SSE 9-13 kts 25.2°c 1011.6 hPa 82% 0.0mm
11/02:00pm SSE 10-14 kts 25.0°c 1011.8 hPa 82% 0.0mm
11/01:30pm S 11-15 kts 24.5°c 1012.2 hPa 82% 0.0mm
11/01:00pm S 12-17 kts 24.9°c 1012.6 hPa 79% 0.0mm
11/12:30pm S 13-18 kts 25.6°c 1012.6 hPa 79% 0.0mm
11/12:00pm S 13-17 kts 25.5°c 1012.7 hPa 77% 0.0mm
11/11:30am S 15-19 kts 25.1°c 1012.8 hPa 78% 0.0mm
11/11:00am S 13-19 kts 24.4°c 1013.0 hPa 77% 0.0mm
11/10:30am SSE 11-18 kts 26.5°c 1013.1 hPa 73% 0.0mm
11/10:00am SSE 7-11 kts 25.9°c 1013.1 hPa 69% 0.0mm
11/09:30am SSW 7-15 kts 26.7°c 1013.1 hPa 64% 0.0mm
11/09:00am NW 7-12 kts 25.4°c 1012.7 hPa 72% 8.2mm
11/08:30am NNW 9-13 kts 23.7°c 1011.9 hPa 77% 8.2mm
11/08:00am NW 5-9 kts 23.5°c 1012.9 hPa 80% 8.2mm
11/07:30am NW 5-8 kts 21.8°c 1012.7 hPa 87% 8.2mm
11/07:00am N 8-11 kts 21.0°c 1012.2 hPa 92% 8.2mm
11/06:30am NE 7-10 kts 21.2°c 1012.1 hPa 92% 8.2mm
11/06:00am NNW 5 kts 20.4°c 1012.3 hPa 93% 8.2mm
11/05:30am NNE 4-5 kts 20.1°c 1012.2 hPa 90% 8.2mm
11/05:00am SSW 8-10 kts 21.0°c 1012.2 hPa 90% 8.2mm
11/04:30am NNW 5-8 kts 20.8°c 1011.3 hPa 84% 8.2mm
11/04:00am N 5-7 kts 21.4°c 1010.3 hPa 83% 8.2mm
11/03:30am NNE 5-7 kts 22.0°c 1010.1 hPa 79% 8.2mm
11/03:00am N 5-7 kts 22.3°c 1010.0 hPa 79% 8.2mm
11/02:30am ENE 6-8 kts 22.8°c 1010.1 hPa 79% 8.2mm
11/02:00am NNE 6-11 kts 22.7°c 1010.2 hPa 76% 8.2mm
11/01:30am SE 10-17 kts 22.6°c 1010.5 hPa 80% 8.2mm
11/01:00am NW 11-18 kts 23.0°c 1009.7 hPa 77% 8.2mm
11/12:30am NNW 13-25 kts 22.3°c 1010.4 hPa 90% 8.2mm
11/12:00am N 13-17 kts 22.2°c 1012.1 hPa 92% 8.2mm
Time Wind Speed Temp Pressure Rel. Hum Rain
10/11:30pm N 8-12 kts 22.4°c 1013.4 hPa 93% 8.2mm
10/11:00pm N 11-16 kts 22.3°c 1013.4 hPa 93% 8.2mm
10/10:30pm NE 7-10 kts 22.8°c 1014.0 hPa 92% 6.0mm
10/10:00pm SW 8-12 kts 23.3°c 1014.4 hPa 90% 5.4mm
10/09:30pm SSE 6-16 kts 23.2°c 1014.4 hPa 90% 5.0mm
10/09:00pm SE 3-5 kts 24.5°c 1013.4 hPa 80% 1.6mm
10/08:30pm NNW 8-14 kts 24.5°c 1012.2 hPa 77% 0.0mm
10/08:00pm N 11-15 kts 24.3°c 1011.6 hPa 79% 0.0mm
10/07:30pm N 13-20 kts 24.3°c 1011.2 hPa 79% 0.0mm
10/07:00pm N 12-20 kts 24.7°c 1011.1 hPa 78% 0.0mm
10/06:30pm N 13-19 kts 25.1°c 1010.3 hPa 78% 0.0mm
10/06:00pm NNE 13-18 kts 25.4°c 1010.4 hPa 76% 0.0mm
10/05:30pm NNE 14-21 kts 26.2°c 1010.3 hPa 73% 0.0mm
10/05:00pm NNE 15-23 kts 26.8°c 1010.2 hPa 71% 0.0mm
10/04:47pm NNE 15-26 kts 27.0°c 1010.3 hPa 70% 0.0mm
10/04:30pm NNE 15-22 kts 27.5°c 1010.4 hPa 67% 0.0mm
10/04:00pm NNE 14-22 kts 29.5°c 1010.7 hPa 61% 0.0mm
10/03:44pm NNE 15-25 kts 30.0°c 1011.0 hPa 62% 0.0mm
10/03:30pm NNE 17-25 kts 29.7°c 1011.1 hPa 61% 0.0mm
10/03:03pm NNE 15-26 kts 30.7°c 1011.6 hPa 58% 0.0mm
10/03:00pm NNE 15-24 kts 30.7°c 1011.6 hPa 59% 0.0mm
10/02:30pm NNE 17-25 kts 31.5°c 1012.1 hPa 56% 0.0mm
10/02:00pm NNE 16-25 kts 30.7°c 1012.8 hPa 56% 0.0mm
10/01:57pm NNE 15-25 kts 30.4°c 1012.9 hPa 57% 0.0mm
10/01:30pm NNE 15-24 kts 31.3°c 1013.3 hPa 53% 0.0mm
10/01:00pm NNE 12-19 kts 31.2°c 1013.8 hPa 57% 0.0mm
10/12:30pm NNE 13-21 kts 30.0°c 1014.5 hPa 56% 0.0mm
10/12:00pm NNE 13-19 kts 30.4°c 1014.8 hPa 55% 0.0mm
10/11:30am NNE 11-17 kts 31.4°c 1015.2 hPa 55% 0.0mm
10/11:00am N 11-19 kts 33.1°c 1015.7 hPa 47% 0.0mm
10/10:30am NNW 9-17 kts 32.1°c 1016.1 hPa 51% 0.0mm
10/10:00am NNW 7-13 kts 30.8°c 1016.3 hPa 54% 0.0mm
10/09:30am NNW 10-17 kts 29.3°c 1016.7 hPa 57% 0.0mm
10/09:00am NNW 8-15 kts 28.2°c 1016.9 hPa 63% 0.0mm
10/08:30am NNW 5-8 kts 27.0°c 1017.2 hPa 72% 0.0mm
10/08:00am N 5-7 kts 25.4°c 1017.4 hPa 81% 0.0mm
10/07:30am NNW 6-9 kts 23.8°c 1017.1 hPa 89% 0.0mm
10/07:00am NNW 5-7 kts 22.7°c 1017.0 hPa 93% 0.0mm
10/06:30am N 5-6 kts 22.1°c 1017.0 hPa 94% 0.0mm
10/06:00am N 5-7 kts 21.8°c 1017.0 hPa 93% 0.0mm
10/05:30am N 5-7 kts 21.8°c 1016.9 hPa 92% 0.0mm
10/05:00am N 5-7 kts 22.1°c 1016.8 hPa 92% 0.0mm
10/04:30am N 6-9 kts 22.3°c 1016.8 hPa 93% 0.0mm
10/04:00am N 6-8 kts 22.6°c 1016.9 hPa 92% 0.0mm
10/03:30am N 5-7 kts 22.7°c 1017.0 hPa 92% 0.0mm
10/03:00am N 6-7 kts 22.8°c 1017.1 hPa 91% 0.0mm
10/02:30am N 5-7 kts 23.1°c 1017.2 hPa 90% 0.0mm
10/02:00am N 6-8 kts 23.2°c 1017.7 hPa 90% 0.0mm
10/01:30am N 7-10 kts 23.1°c 1018.0 hPa 90% 0.0mm
10/01:00am N 9-13 kts 23.1°c 1018.1 hPa 90% 0.0mm
10/12:30am N 9-12 kts 23.2°c 1018.4 hPa 89% 0.0mm
10/12:00am N 10-15 kts 23.2°c 1018.7 hPa 89% 0.0mm